EW7594 Weather Reports


Display with metric or nautical units.
time (UTC)temp
F
wind
direction
speed
MPH
gust
MPH
rain 1hr
in
rain 24hr
in
rain mn
in
humidity
%
barometer
mb
20260504191503 50 0 0.0 5.0 0.01 0.39 0.03 96 1022.3
20260504190603 50 0 0.0 1.0 0.01 0.39 0.03 96 1022.2
20260504185704 50 0 0.0 1.0 0.01 0.43 0.03 96 1022.2
20260504184803 50 220 1.0 3.0 0.01 0.43 0.03 96 1022.1
20260504183904 50 232 1.0 5.0 0.00 0.43 0.02 96 1022.0
20260504183004 50 0 0.0 4.0 0.01 0.43 0.02 96 1021.9
20260504182403 50 0 0.0 3.0 0.01 0.43 0.02 96 1021.9
20260504181503 50 0 0.0 3.0 0.01 0.43 0.02 96 1021.9
20260504180624 50 0 0.0 5.0 0.01 0.43 0.02 96 1021.9
20260504175703 50 0 0.0 4.0 0.01 0.45 0.02 96 1021.8
20260504174803 50 0 0.0 2.0 0.01 0.47 0.02 96 1021.9
20260504173904 50 0 0.0 2.0 0.01 0.48 0.02 96 1021.9
20260504173003 50 0 0.0 2.0 0.01 0.47 0.02 95 1022.0
20260504172404 51 0 0.0 2.0 0.01 0.47 0.02 95 1022.1
20260504171503 51 228 1.0 5.0 0.01 0.47 0.02 95 1022.1
20260504170604 51 232 1.0 3.0 0.01 0.47 0.02 95 1022.1
20260504150603 50 0 0.0 0.0 0.00 0.57 0.00 94 1022.0
20260504140603 51 0 0.0 2.0 0.00 0.91 0.87 95 1021.7
20260504130603 50 0 0.0 4.0 0.00 1.04 0.87 94 1021.5
20260504110603 51 0 0.0 2.0 0.01 1.10 0.87 95 1020.7
20260504100603 52 0 0.0 3.0 0.00 1.11 0.87 94 1019.9
20260504081503 54 218 1.0 5.0 0.00 1.61 0.87 89 1018.3
20260504080624 54 231 1.0 6.0 0.00 1.61 0.87 88 1018.3
20260504050603 54 232 2.0 10.0 0.00 1.65 0.87 96 1016.5
20260504045703 54 225 2.0 9.0 0.00 1.65 0.87 96 1016.3
20260504044824 54 217 1.0 10.0 0.00 1.65 0.87 96 1016.3
20260504043903 53 214 2.0 9.0 0.00 1.65 0.87 95 1016.2
20260504043003 54 224 2.0 11.0 0.00 1.65 0.87 96 1016.1
20260504042403 54 235 2.0 11.0 0.00 1.65 0.87 95 1016.1
20260504041503 55 242 1.0 5.0 0.00 1.65 0.87 96 1016.0
20260504040603 54 218 1.0 4.0 0.00 1.65 0.87 96 1016.1
20260504035724 53 217 1.0 8.0 0.00 1.65 0.87 96 1016.1
20260504034824 54 224 2.0 7.0 0.00 1.65 0.87 96 1016.2
20260504033903 54 221 2.0 11.0 0.00 1.65 0.87 96 1016.2
20260504033003 54 209 1.0 4.0 0.00 1.65 0.87 97 1016.2
20260504032403 55 238 1.0 5.0 0.00 1.65 0.87 97 1016.1
20260504031524 54 222 2.0 8.0 0.00 1.65 0.87 97 1016.2
20260504030624 53 227 2.0 12.0 0.00 1.65 0.87 97 1016.3
20260504025703 53 238 1.0 6.0 0.00 1.65 0.87 97 1016.4
20260504024803 53 222 1.0 9.0 0.00 1.65 0.87 97 1016.4
20260504023903 53 223 2.0 9.0 0.00 1.65 0.87 97 1016.3
20260504023024 53 224 1.0 5.0 0.01 1.65 0.87 97 1016.4
20260504022424 54 209 1.0 4.0 0.01 1.65 0.87 97 1016.5
20260504021503 54 219 2.0 7.0 0.01 1.65 0.87 97 1016.5
20260504020624 54 216 2.0 11.0 0.01 1.65 0.87 97 1016.4
20260504015703 53 231 3.0 12.0 0.01 1.65 0.87 97 1016.3
20260504014803 54 228 2.0 12.0 0.02 1.65 0.87 97 1016.3
20260504013924 54 218 2.0 6.0 0.02 1.65 0.87 97 1016.3
20260504013025 54 213 1.0 4.0 0.01 1.65 0.86 97 1016.2
20260504012403 54 187 1.0 5.0 0.01 1.65 0.86 98 1016.1
20260504011503 54 219 2.0 7.0 0.02 1.65 0.86 98 1016.0
20260504010603 53 229 1.0 9.0 0.02 1.65 0.86 97 1016.0
20260504005703 53 236 2.0 8.0 0.02 1.65 0.86 97 1015.9
20260504004803 53 233 1.0 7.0 0.01 1.64 0.85 97 1015.7
20260504003903 53 229 1.0 10.0 0.01 1.64 0.85 97 1015.7
20260504003003 53 233 2.0 13.0 0.01 1.64 0.85 98 1015.6
20260504002403 53 229 1.0 13.0 0.01 1.64 0.85 98 1015.5
20260504001503 53 230 2.0 6.0 0.01 1.63 0.84 98 1015.5
20260504000603 52 225 2.0 6.0 0.02 1.63 0.84 98 1015.5
20260503235724 52 224 2.0 9.0 0.02 1.63 0.84 98 1015.3
20260503234803 53 219 1.0 6.0 0.02 1.63 0.84 98 1015.2
20260503233903 52 232 1.0 8.0 0.02 1.63 0.84 98 1015.2
20260503233003 52 224 3.0 11.0 0.04 1.63 0.84 98 1015.0
20260503232403 52 232 1.0 11.0 0.04 1.63 0.84 98 1015.0
20260503231503 52 236 1.0 8.0 0.03 1.62 0.83 98 1014.7
20260503230603 52 238 2.0 8.0 0.03 1.61 0.83 98 1014.8
20260503225704 52 232 1.0 9.0 0.06 1.61 0.82 98 1014.5
20260503224824 52 252 2.0 11.0 0.07 1.61 0.82 98 1014.3
20260503223903 52 237 1.0 6.0 0.09 1.61 0.82 98 1014.2
20260503223024 52 220 1.0 7.0 0.09 1.59 0.80 98 1014.0
20260503222403 52 244 1.0 7.0 0.09 1.59 0.80 98 1013.9
20260503221524 51 230 1.0 8.0 0.09 1.60 0.80 98 1014.0
20260503220624 52 197 1.0 5.0 0.10 1.59 0.80 98 1013.7
20260503215703 51 247 1.0 8.0 0.10 1.56 0.76 98 1013.5
20260503214803 51 166 1.0 8.0 0.13 1.55 0.75 98 1013.4
20260503213924 51 228 1.0 6.0 0.11 1.54 0.72 98 1013.3
20260503213024 51 222 1.0 10.0 0.10 1.55 0.72 97 1013.4
20260503212403 51 214 1.0 10.0 0.12 1.56 0.72 97 1013.2
20260503211503 51 212 1.0 10.0 0.13 1.57 0.72 97 1013.2
20260503210603 51 219 1.0 4.0 0.14 1.57 0.71 98 1012.8
20260503205724 51 159 1.0 7.0 0.11 1.54 0.66 97 1012.6
20260503204803 51 269 2.0 6.0 0.09 1.50 0.61 98 1012.6
20260503203924 51 243 1.0 6.0 0.09 1.54 0.61 98 1012.6
20260503203003 51 149 1.0 6.0 0.09 1.55 0.61 97 1012.4
20260503202403 52 189 1.0 6.0 0.08 1.54 0.60 97 1012.4
20260503201503 51 42 1.0 10.0 0.07 1.53 0.59 97 1012.3
20260503200603 51 210 1.0 7.0 0.04 1.50 0.55 97 1012.2
20260503195703 51 204 1.0 6.0 0.08 1.50 0.55 97 1012.1
20260503194803 51 222 1.0 8.0 0.06 1.48 0.53 97 1012.0
20260503193924 51 342 1.0 9.0 0.06 1.48 0.53 97 1012.1
20260503193003 51 231 1.0 7.0 0.06 1.47 0.52 97 1011.8
20260503192403 51 266 1.0 13.0 0.06 1.47 0.52 97 1011.9